CZ-6A DEB, 61485

Orbit data source: Space-Track

CZ-6A DEB, 61485 is space debris in LEO originally from a launch on Tue, 06 Aug 2024 UTC launched from the Taiyaun Space Center, China (TSC). Debris objects in space refer to the collection of defunct objects orbiting the Earth. Examples of debris include non-operational satellites, rocket bodies, and fragments generated from explosions, collisions, or faulty payload assembly.

Loading next visibility...
Identifier
61485, 2024-140AAT
Orbit
LEO
Country
Flag of CNCN / PRC
Related business
Manufacturer
SAST
Mission
Spacecraft
Bus & Motor
Unknown
Mass
Unknown
Launch date (UTC)
2024-08-06 (2 years ago)
Launch vehicle
Unknown
Launch site
Taiyaun Space Center, China (TSC)
Object type
Payload
Rocket body
Debris
Shape & HBR
Unknown shape, 0.1 m
Radar Cross Section
Medium (>0.1 m² and <1 m²)

Expand to show TLE details & history
Last TLE update: 19 hours ago

TLE from 19 hours ago
0 CZ-6A DEB
1 61485U 24140AAT 26171.19649801  .00000341  00000-0  21414-3 0  9993
2 61485  88.7778 260.0245 0146242 252.1305 106.3877 13.97306831 90649
Epoch: 2026-06-20T04:42Z
TLE epoch observation values (Epoch: 2026-06-20T04:42:57.428Z)
Latitude
-0.00004°
Longitude
-79.12937°
Altitude
937.629 km
Speed
7.367 km/s
True Right ascension
17h 20m 05s
True Declination
0° 00' 00"
Sunlit
Object was in full shadow at epoch
Visualization orbit readout
Latitude
Unknown
Longitude
Unknown
Altitude
Unknown
Speed
Unknown
Apparent Right ascension
Unknown
Apparent Declination
Unknown
Sunlit
N/A
Visualization observer readout
Local Sidereal Time
10:18:24
Azimuth
Unknown
Elevation
Unknown
Doppler factor
Unknown
Orbital elements
Apogee altitude
1,006.559 km
Perigee altitude
793.682 km
Semi-major axis
7,278.257 km
Eccentricity
0.01462
Inclination
88.7778°
RAAN
260.0245°
Arg. of periapsis
252.1305°
True anomaly
107.98697°
Mean anomaly
106.3877°
Eccentric anomaly
107.18818°
Mean motion
3.49544 °/min
Orbital period
102.99 mins
BSTAR
0.00021414
Loading maneuver chart data...
Computing Atmospheric mass density...
Loading historical data...
Loading historical data...
Loading historical data...
Loading historical data...
Loading historical data...
Loading historical data...
Loading historical data...

Documentation

Showing up to 5 results
|